Regional Weather Roundup
Issued by NWS Goodland, KS

Home | Current Version | Previous Version | Graphics & Text | Print | Product List | Glossary On
Versions: 1 2 3 4 5 6 7 8 9 10 11 12 13 14 15 16 17 18 19 20 21 22 23 24 25 26 27 28 29 30 31 32 33 34 35 36 37 38 39 40 41 42 43 44 45 46 47 48 49 50
000
ASUS43 KGLD 180408
RWRGLD

GOODLAND FORECAST AREA HOURLY WEATHER ROUNDUP
NATIONAL WEATHER SERVICE GOODLAND KS
1000 PM MDT FRI APR 17 2015

...OFFICIAL OBSERVATIONS...

CITY           SKY/WX    TMP DP  RH WIND       PRES   REMARKS
GOODLAND KS    CLOUDY    49  47  93 NE15      29.97F
HILL CITY KS   TSTM      58  50  75 VRB3      29.96F
IMPERIAL NEB   RAIN      49  45  86 SE12      30.01R FOG
MCCOOK NEB     MOCLDY    57  51  80 CALM      29.97R
AKRON CO       LGT RAIN  41  39  93 N14       30.02R
BURLINGTON CO  PTCLDY    49  42  77 E17       29.96R
LIMON CO       CLOUDY    39  35  86 NW12      30.04R
$$

...UNOFFICIAL OBSERVATIONS...

CITY           SKY/WX    TMP DP  RH WIND       PRES   REMARKS
COLBY KS       CLOUDY    52  52 100 NW9       29.97F
GOVE KS          N/A     58  32  37 MISG        N/A
LENORA KS        N/A     59  32  36 MISG        N/A
NORTON KS      DRIZZLE   55  48  76 E6        29.95F
SHARON SPRINGS   N/A     54  41  62 MISG        N/A
TRIBUNE KS     CLOUDY    57  45  62 SE9       29.95F
KIT CARSON CO    N/A     45  38  77 MISG        N/A
$$


USA.gov is the U.S. government's official web portal to all federal, state and local government web resources and services.